Laramie, WY

11:23 PM MDT on March 22, 2017 (GMT -0600)
Laramie Regional

Weather History for KLAR - May, 2012

Change the Weather History Date:

Wednesday, May 2, 2012

  Actual Average Record
Temperature  
Mean Temperature 51 °F 43 °F  
Max Temperature 62 °F 56 °F 74 °F (1986)
Min Temperature 40 °F 29 °F 5 °F (2013)
Degree Days  
Heating Degree Days 14 22  
Month to date heating degree days 28 22  
Since 1 July heating degree days 7628 8071  
Cooling Degree Days 0 0  
Month to date cooling degree days 0 0  
Year to date cooling degree days 0 0  
Growing Degree Days 1 (Base 50)    
Moisture  
Dew Point 38 °F    
Average Humidity 65    
Maximum Humidity 93    
Minimum Humidity 36    
Precipitation  
Precipitation 0.21 in 0.04 in 0.56 in (2009)
Month to date precipitation 0.21 0.04  
Year to date precipitation 1.86 2.30  
Sea Level Pressure  
Sea Level Pressure 29.79 in    
Wind  
Wind Speed 13 mph (WSW)    
Max Wind Speed 33 mph    
Max Gust Speed 41 mph    
Visibility 9 miles    
Events Rain , Thunderstorm    
T = Trace of Precipitation, MM = Missing Value Source: NWS Daily Summary

Daily Weather History Graph

Daily Weather History Graph

Search for Another Location

Airport or City:

Trip Planner

Search our weather history database for the weather conditions in past years. The results will help you decide how hot, cold, wet, or windy it might be!

Date:

Astronomy

May. 02, 2012 Rise Set
Actual Time 5:58 AM MDT 8:01 PM MDT
Civil Twilight 5:27 AM MDT 8:32 PM MDT
Nautical Twilight 4:51 AM MDT 9:09 PM MDT
Astronomical Twilight 4:10 AM MDT 9:49 PM MDT
Moon 4:15 PM MDT (5/2) 3:32 AM MDT (5/2)
Length of Visible Light 15h 04m
Length of Day
14h 03m
Waxing Gibbous, 84% of the Moon is Illuminated
May 2
Waxing Gibbous
May 5
Full
May 12
Last Quarter
May 20
New
May 28
First Quarter

Hourly Weather History & Observations

Time (MDT) Temp. Windchill Dew Point Humidity Pressure Visibility Wind Dir Wind Speed Gust Speed Precip Events Conditions
12:53 AM 46.0 °F 39.9 °F 37.0 °F 71% 29.65 in 10.0 mi SW 13.8 mph - 0.00 in Rain Light Rain
1:53 AM 43.0 °F 36.0 °F 39.0 °F 86% 29.65 in 10.0 mi SSW 13.8 mph - 0.02 in Rain Light Rain
2:53 AM 42.1 °F 37.1 °F 39.0 °F 89% 29.65 in 10.0 mi SSE 8.1 mph - 0.00 in   Mostly Cloudy
3:53 AM 41.0 °F 38.0 °F 37.9 °F 89% 29.64 in 10.0 mi SSE 4.6 mph - N/A   Mostly Cloudy
4:53 AM 41.0 °F 38.0 °F 39.0 °F 93% 29.65 in 10.0 mi SSE 4.6 mph - N/A   Overcast
5:53 AM 41.0 °F 38.0 °F 39.0 °F 93% 29.68 in 10.0 mi NNW 4.6 mph - N/A   Overcast
6:53 AM 42.1 °F 36.6 °F 39.0 °F 89% 29.72 in 10.0 mi North 9.2 mph - N/A   Overcast
7:53 AM 41.0 °F 37.1 °F 39.0 °F 93% 29.75 in 10.0 mi East 5.8 mph - 0.00 in Rain Light Rain
8:53 AM 44.1 °F 39.0 °F 39.9 °F 85% 29.76 in 10.0 mi South 9.2 mph - 0.03 in Rain Light Rain
9:53 AM 48.0 °F - 41.0 °F 77% 29.72 in 10.0 mi SSW 12.7 mph - 0.01 in   Overcast
10:53 AM 55.9 °F - 39.9 °F 55% 29.69 in 10.0 mi South 18.4 mph 26.5 mph N/A   Scattered Clouds
11:46 AM 53.6 °F - 37.4 °F 54% 29.92 in 10.0 mi WNW 18.4 mph 35.7 mph N/A Thunderstorm Mostly Cloudy
11:53 AM 48.9 °F - 41.0 °F 74% 29.75 in 10.0 mi NW 19.6 mph 28.8 mph N/A Thunderstorm Overcast
11:55 AM 48.2 °F - 41.0 °F 76% 29.94 in 10.0 mi NNW 20.7 mph 28.8 mph N/A   Overcast
12:53 PM 55.9 °F - 37.0 °F 49% 29.70 in 10.0 mi West 25.3 mph 28.8 mph N/A   Overcast
1:15 PM 55.4 °F - 39.2 °F 54% 29.92 in 10.0 mi SSW 19.6 mph 34.5 mph 0.00 in Rain Light Rain
1:53 PM 60.1 °F - 36.0 °F 41% 29.67 in 10.0 mi SW 12.7 mph 21.9 mph 0.00 in   Partly Cloudy
2:53 PM 61.0 °F - 34.0 °F 36% 29.65 in 10.0 mi WSW 16.1 mph - N/A   Mostly Cloudy
3:32 PM 59.0 °F - 33.8 °F 39% 29.90 in 10.0 mi West 18.4 mph 27.6 mph 0.00 in Thunderstorm Mostly Cloudy
3:53 PM 54.0 °F - 35.1 °F 49% 29.74 in 10.0 mi West 24.2 mph 35.7 mph 0.00 in   Overcast
4:53 PM 55.9 °F - 35.1 °F 45% 29.70 in 10.0 mi WNW 12.7 mph - 0.00 in   Mostly Cloudy
5:53 PM 57.0 °F - 35.1 °F 44% 29.71 in 10.0 mi WSW 8.1 mph - N/A   Mostly Cloudy
6:13 PM 48.2 °F - 37.4 °F 66% 29.94 in 10.0 mi NNW 19.6 mph 28.8 mph N/A Thunderstorm Overcast
6:28 PM 44.6 °F 37.2 °F 39.2 °F 81% 29.95 in 6.0 mi North 17.3 mph 26.5 mph N/A Rain Light Rain
6:53 PM 45.0 °F 38.9 °F 39.0 °F 80% 29.81 in 10.0 mi North 12.7 mph - 0.02 in Rain Light Rain
7:14 PM 44.6 °F 42.2 °F 39.2 °F 81% 29.98 in 5.0 mi North 4.6 mph - N/A Rain , Thunderstorm Thunderstorms and Rain
7:29 PM 44.6 °F 39.2 °F 39.2 °F 81% 30.01 in 2.5 mi West 10.4 mph 31.1 mph 0.11 in Rain , Thunderstorm Heavy Thunderstorms and Rain
7:32 PM 44.6 °F 38.8 °F 39.2 °F 81% 30.01 in 4.0 mi West 11.5 mph 27.6 mph 0.12 in Rain Heavy Rain
7:53 PM 46.0 °F 38.8 °F 41.0 °F 83% 29.87 in 10.0 mi West 18.4 mph 23.0 mph 0.12 in Rain Light Rain
8:53 PM 44.1 °F 40.1 °F 39.0 °F 82% 29.85 in 10.0 mi SW 6.9 mph - 0.01 in   Scattered Clouds
9:53 PM 42.1 °F 36.6 °F 39.0 °F 89% 29.83 in 10.0 mi SSE 9.2 mph - N/A   Partly Cloudy
10:53 PM 43.0 °F 37.2 °F 37.9 °F 82% 29.78 in 10.0 mi South 10.4 mph - N/A   Mostly Cloudy
11:53 PM 42.1 °F 36.1 °F 36.0 °F 79% 29.83 in 10.0 mi SW 10.4 mph - N/A   Clear